Location: *
(50.3440°N, 18.6237°E)
Time: 16:52:28
(UTC+00:00)

Cosmos 2237 Rocket - Pass Details

Date: 30 November 2020
Orbit: 833 x 851 km, 71.0° (Epoch: 17 January)

Event Time Altitude Azimuth Distance (km) Brightness Sun altitude
Rises 16:13:42 0° 230° (SW) 3,374 6.7 -13.4°
Reaches altitude 10° 16:16:15 10° 237° (WSW) 2,445 5.9 -13.8°
Maximum altitude 16:21:35 44° 309° (NW) 1,157 3.2 -14.6°
Drops below altitude 10° 16:26:59 10° 21° (NNE) 2,467 4.3 -15.5°
Enters shadow 16:27:31 - 23° (NNE) 2,658 4.4 -15.5°
